KB1ATL Wesley Chapel FL US current weather conditions

sailwx.info

Wind from 115 at 3 knots

Air temperature 21.7° C
Dewpoint 16.8° C

Last reported at 2018-Dec-14 02:43 UTC.
Time now 2018-Dec-14 19:08 UTC

Location: N 28°12' W 082°22'.
View on Google Maps.

See reports from other nearby stations

  
Tides and Currents Weather Stations Pressure Air Temp Water Temp Dewpoint Dewpoint Depression Visibility Wind Speed Wind Dir Waves Ship Positions
date/time (UTC)wind fromknots sea level pressurealtimeterstation pressurevisibilityair tempwater tempwave heightnotes
2018-Dec-14 02:43 115 3 21.7
2018-Dec-14 02:33 094 2 21.7
2018-Dec-14 02:23 113 1 21.1
2018-Dec-14 02:13 112 1 21.1
2018-Dec-14 02:03 106 1 21.1
2018-Dec-14 01:53 074 1 21.1
2018-Dec-14 01:43 123 1 21.1
2018-Dec-14 01:33 121 1 21.1
2018-Dec-14 01:23 112 0 21.1
2018-Dec-14 01:13 140 0 21.1
2018-Dec-14 01:03 106 0 21.1
2018-Dec-14 00:53 084 2 21.7
2018-Dec-14 00:43 107 1 21.7
2018-Dec-14 00:33 067 1 21.7
2018-Dec-14 00:23 111 1 21.7
2018-Dec-14 00:13 096 0 21.7
2018-Dec-14 00:03 073 0 21.7
2018-Dec-13 23:53 076 0 21.7
2018-Dec-13 23:43 072 0 21.7
2018-Dec-13 23:33 065 0 21.7
2018-Dec-13 23:23 065 0 21.7
2018-Dec-13 23:13 065 0 22.2
2018-Dec-13 23:03 071 0 22.2
2018-Dec-13 22:53 074 0 22.2
2018-Dec-13 22:43 074 1 22.2
2018-Dec-13 22:33 057 22.8
2018-Dec-13 22:23 056 22.8
2018-Dec-13 22:13 056 22.8
2018-Dec-13 22:03 056 0 23.3
2018-Dec-13 21:53 055 0 23.3
2018-Dec-13 21:43 046 23.9
2018-Dec-13 21:33 073 0 23.9
2018-Dec-13 21:23 073 0 23.9
2018-Dec-13 21:13 074 0 23.9
2018-Dec-13 21:03 074 0 23.9
2018-Dec-13 20:53 079 1 23.9
2018-Dec-13 20:43 127 0 24.4
2018-Dec-13 20:33 059 1 24.4
2018-Dec-13 20:23 103 1 24.4
2018-Dec-13 20:13 110 2 24.4
2018-Dec-13 20:03 062 2 24.4
2018-Dec-13 19:53 099 1 25.0
2018-Dec-13 19:43 102 3 25.0
2018-Dec-13 19:33 133 3 25.0
2018-Dec-13 19:23 132 1 25.0
2018-Dec-13 19:13 089 2 25.0
2018-Dec-13 19:03 111 2 24.4
2018-Dec-13 18:53 144 2 24.4
2018-Dec-13 18:43 133 2 24.4
2018-Dec-13 18:33 084 3 24.4
2018-Dec-13 18:23 141 2 24.4
2018-Dec-13 18:13 173 3 24.4
2018-Dec-13 18:03 044 3 23.9
2018-Dec-13 17:53 105 4 23.3
2018-Dec-13 17:43 058 3 23.3
2018-Dec-13 17:33 088 3 23.3
2018-Dec-13 17:23 074 3 22.8
2018-Dec-13 17:13 107 3 22.8
2018-Dec-13 17:03 129 3 22.8
2018-Dec-13 16:53 116 3 22.8
2018-Dec-13 16:43 083 3 22.8
2018-Dec-13 16:33 130 3 22.8
2018-Dec-13 16:23 106 4 22.8
2018-Dec-13 16:13 111 3 22.2
2018-Dec-13 16:03 082 4 22.2
2018-Dec-13 15:53 096 3 21.7
2018-Dec-13 15:43 090 3 21.7
2018-Dec-13 15:33 074 4 21.7
2018-Dec-13 15:23 114 3 21.1
2018-Dec-13 15:13 119 3 20.6
2018-Dec-13 15:03 106 3 20.0
2018-Dec-13 14:53 068 3 19.4
2018-Dec-13 14:43 061 3 18.9
2018-Dec-13 14:33 077 1 18.3
2018-Dec-13 14:23 078 1 17.2
2018-Dec-13 14:13 076 1 17.2
2018-Dec-13 14:03 062 1 16.7
2018-Dec-13 13:53 117 0 16.7
2018-Dec-13 13:43 069 0 16.1
2018-Dec-13 13:33 097 1 15.6
2018-Dec-13 13:23 087 0 15.6
2018-Dec-13 13:13 069 15.0
2018-Dec-13 13:03 069 15.0
2018-Dec-13 12:53 071 15.0
2018-Dec-13 12:43 071 14.4
2018-Dec-13 12:33 071 14.4
2018-Dec-13 12:23 071 14.4
2018-Dec-13 12:13 071 14.4
2018-Dec-13 12:03 069 0 14.4
2018-Dec-13 11:53 041 0 14.4
2018-Dec-13 11:43 059 14.4
2018-Dec-13 11:33 053 14.4
2018-Dec-13 11:23 053 13.9
2018-Dec-13 11:13 052 13.9
2018-Dec-13 11:03 052 13.9
2018-Dec-13 10:53 052 13.9
2018-Dec-13 10:43 052 13.9
2018-Dec-13 10:33 052 13.9
2018-Dec-13 10:23 052 13.9
2018-Dec-13 10:13 052 13.9
2018-Dec-13 10:03 052 13.9
2018-Dec-13 09:53 052 13.9
2018-Dec-13 09:43 052 13.9
2018-Dec-13 09:33 052 13.9
2018-Dec-13 09:23 052 13.9
2018-Dec-13 09:13 052 13.3
2018-Dec-13 09:03 052 13.3
2018-Dec-13 08:53 052 13.3
2018-Dec-13 08:43 053 0 13.3
2018-Dec-13 08:33 053 13.3
2018-Dec-13 08:23 050 13.3
2018-Dec-13 08:13 050 13.3
2018-Dec-13 08:03 050 12.8
2018-Dec-13 07:53 049 12.8
2018-Dec-13 07:43 061 12.8
2018-Dec-13 07:33 061 12.8
2018-Dec-13 07:23 061 12.8
2018-Dec-13 07:13 061 12.8
2018-Dec-13 07:03 061 12.8
2018-Dec-13 06:53 061 12.8
2018-Dec-13 06:43 061 12.8
2018-Dec-13 06:33 061 12.8
2018-Dec-13 06:23 061 12.8
2018-Dec-13 06:13 061 12.8
2018-Dec-13 06:03 061 12.8
2018-Dec-13 05:53 061 13.3
2018-Dec-13 05:43 061 13.3
2018-Dec-13 05:33 061 13.3
2018-Dec-13 05:23 061 13.3
2018-Dec-13 05:13 061 13.3
2018-Dec-13 05:03 061 13.3
2018-Dec-13 04:53 061 12.8
2018-Dec-13 04:43 061 12.8
2018-Dec-13 04:33 061 12.8
2018-Dec-13 04:23 061 12.2
2018-Dec-13 04:13 061 12.2
2018-Dec-13 04:03 061 11.7
2018-Dec-13 03:53 061 11.7
2018-Dec-13 03:43 061 11.7
2018-Dec-13 03:33 061 11.7
2018-Dec-13 03:23 061 11.7
2018-Dec-13 03:13 061 12.2
2018-Dec-13 03:03 061 12.2
2018-Dec-13 02:54 061 12.2
2018-Dec-13 02:43 061 12.2
2018-Dec-13 02:33 061 12.2
2018-Dec-13 02:23 061 12.8
2018-Dec-13 02:13 061 12.8
2018-Dec-13 02:03 061 12.8
2018-Dec-13 01:53 061 12.8
2018-Dec-13 01:43 061 12.8
2018-Dec-13 01:33 061 12.8
2018-Dec-13 01:23 061 12.8
2018-Dec-13 01:13 061 12.8
2018-Dec-13 01:03 061 12.8
2018-Dec-13 00:53 061 12.8
2018-Dec-13 00:43 061 12.8
2018-Dec-13 00:33 061 12.8
2018-Dec-13 00:23 061 13.3
2018-Dec-13 00:13 061 13.3
2018-Dec-13 00:03 061 13.3
2018-Dec-12 23:53 061 13.3
2018-Dec-12 23:43 061 13.3
2018-Dec-12 23:33 061 13.9
2018-Dec-12 22:53 061 15.6
2018-Dec-12 22:43 061 16.1
2018-Dec-12 22:33 061 16.1
2018-Dec-12 22:23 061 16.7
2018-Dec-12 22:13 061 17.2
2018-Dec-12 22:03 061 18.3
2018-Dec-12 21:53 061 18.9
2018-Dec-12 21:43 061 18.9
2018-Dec-12 21:33 061 18.9
2018-Dec-12 21:23 061 18.9
2018-Dec-12 21:13 061 18.9
2018-Dec-12 21:03 061 18.9
2018-Dec-12 20:53 061 18.9
2018-Dec-12 20:43 061 19.4
2018-Dec-12 20:33 061 19.4
2018-Dec-12 20:23 061 19.4
2018-Dec-12 20:13 061 20.0
2018-Dec-12 20:03 061 20.6
2018-Dec-12 19:53 061 0 20.0
2018-Dec-12 19:43 061 20.0
2018-Dec-12 19:33 061 0 20.6
2018-Dec-12 19:23 070 0 20.0
2018-Dec-12 19:13 065 0 20.0
2018-Dec-12 19:03 088 0 20.0